20070708,000018,864000,31.911005,-124.172038,2.3,17.219,33.367,43.584,1723.69,0.0,0.430,17.417, NaN, NaN,24.105,   NaN,16.91,1017.57,83.41,16.64,26.4,24.8,13.2,11.6,9.3,6.5,13.2,10.9,NaN, NaN,20.0,335.3,NaN,1183852817,NaN,2,1.7,000017,   NaN,335.3,     NaN,      NaN,1.34,NaN,NaN,17.611, NaN,NaN,110.5, NaN, NaN,NaN
20070708,000049,864030,31.911121,-124.172170,2.3,17.217,33.366,43.582,2273.98,0.0,0.546,17.419, NaN, NaN,24.104,   NaN,16.85,1017.54,83.18,16.57,27.9,26.1,13.0,11.1,9.6,5.6,10.1,8.8,NaN, NaN,19.0,334.9,NaN,1183852847,NaN,2,1.7,000048,   NaN,334.9,     NaN,      NaN,1.16,NaN,NaN,17.609, NaN,NaN,104.6, NaN, NaN,NaN
20070708,000118,864059,31.911223,-124.172260,2.3,17.219,33.367,43.584,2215.69,0.0,0.534,17.426, NaN, NaN,24.105,   NaN,16.90,1017.56,83.18,16.56,29.2,26.6,11.7,9.9,4.6,356.0,9.8,9.3,NaN, NaN,20.0,334.2,NaN,1183852877,NaN,2,1.6,000077,   NaN,334.2,     NaN,      NaN,1.13,NaN,NaN,17.611, NaN,NaN,95.5, NaN, NaN,NaN
20070708,000148,864089,31.911331,-124.172345,2.3,17.219,33.367,43.584,2851.65,0.0,0.667,17.417, NaN, NaN,24.105,   NaN,16.96,1017.66,83.24,16.64,26.4,22.9,12.0,10.8,6.7,358.7,13.6,10.5,NaN, NaN,20.0,334.1,NaN,1183852907,NaN,2,1.4,000107,   NaN,334.1,     NaN,      NaN,1.38,NaN,NaN,17.611, NaN,NaN,96.7, NaN, NaN,NaN
20070708,000218,864119,31.911410,-124.172482,2.3,17.218,33.367,43.583,1548.30,0.0,0.394,17.417, NaN, NaN,24.104,   NaN,16.92,1017.71,82.88,16.64,24.3,22.0,13.2,11.9,356.4,352.3,12.4,11.1,NaN, NaN,20.0,333.1,NaN,1183852937,NaN,2,1.4,000137,   NaN,333.1,     NaN,      NaN,1.25,NaN,NaN,17.610, NaN,NaN,95.1, NaN, NaN,NaN
20070708,000248,864150,31.911506,-124.172560,2.3,17.221,33.363,43.586,1450.90,0.0,0.373,17.417, NaN, NaN,24.100,   NaN,16.91,1017.71,82.74,16.63,23.8,22.3,12.9,11.8,354.6,356.9,10.5,9.7,NaN, NaN,20.0,333.2,NaN,1183852967,NaN,2,1.5,000167,   NaN,333.2,     NaN,      NaN,1.06,NaN,NaN,17.613, NaN,NaN,84.4, NaN, NaN,NaN
20070708,000318,864179,31.911613,-124.172645,2.3,17.225,33.366,43.588,1573.37,0.0,0.399,17.419, NaN, NaN,24.103,   NaN,16.93,1017.66,82.84,16.63,22.6,20.5,11.9,11.1,4.3,2.3,10.7,10.1,NaN, NaN,20.0,336.6,NaN,1183852997,NaN,2,1.4,000197,   NaN,336.7,     NaN,      NaN,1.00,NaN,NaN,17.617, NaN,NaN,85.2, NaN, NaN,NaN
20070708,000349,864210,31.911700,-124.172732,2.3,17.222,33.366,43.586,1367.02,0.0,0.356,17.427, NaN, NaN,24.104,   NaN,16.97,1017.62,83.08,16.66,23.8,20.8,11.9,10.8,4.8,1.8,12.4,11.0,NaN, NaN,20.0,337.5,NaN,1183853027,NaN,2,1.3,000228,   NaN,337.5,     NaN,      NaN,0.90,NaN,NaN,17.614, NaN,NaN,85.4, NaN, NaN,NaN
20070708,000418,864239,31.911808,-124.172832,2.3,17.218,33.367,43.583,1324.74,0.0,0.347,17.426, NaN, NaN,24.105,   NaN,16.92,1017.65,82.91,16.64,24.4,23.0,11.8,10.7,0.5,0.9,11.3,8.4,NaN, NaN,20.0,335.2,NaN,1183853057,NaN,2,1.2,000257,   NaN,335.1,     NaN,      NaN,1.27,NaN,NaN,17.610, NaN,NaN,74.3, NaN, NaN,NaN
20070708,000448,864269,31.911926,-124.172928,2.3,17.218,33.366,43.582,1259.98,0.0,0.333,17.417, NaN, NaN,24.104,   NaN,16.92,1017.68,83.00,16.65,23.5,22.8,11.6,10.2,1.2,357.2,12.4,10.4,NaN, NaN,20.0,333.8,NaN,1183853087,NaN,2,1.4,000287,   NaN,333.8,     NaN,      NaN,1.09,NaN,NaN,17.610, NaN,NaN,75.4, NaN, NaN,NaN
20070708,000518,864299,31.912003,-124.173092,2.3,17.219,33.366,43.583,1331.80,0.0,0.348,17.417, NaN, NaN,24.103,   NaN,16.89,1017.62,82.97,16.65,23.3,21.8,12.0,10.6,356.9,353.8,10.5,9.8,NaN, NaN,20.0,333.1,NaN,1183853117,NaN,2,1.7,000317,   NaN,333.1,     NaN,      NaN,1.32,NaN,NaN,17.611, NaN,NaN,72.3, NaN, NaN,NaN
20070708,000548,864330,31.912063,-124.173135,2.1,17.219,33.366,43.583,1275.09,0.0,0.336,17.419, NaN, NaN,24.103,   NaN,16.88,1017.54,82.97,16.64,24.8,20.8,11.8,10.7,358.5,356.6,11.4,9.7,NaN, NaN,20.0,333.9,NaN,1183853147,NaN,2,1.6,000347,   NaN,333.9,     NaN,      NaN,0.78,NaN,NaN,17.611, NaN,NaN,65.3, NaN, NaN,NaN
20070708,000618,864359,31.912148,-124.173223,2.3,17.223,33.365,43.587,1249.25,0.0,0.331,17.417, NaN, NaN,24.100,   NaN,16.94,1017.60,83.15,16.66,23.5,21.5,11.2,9.6,1.5,1.9,10.6,8.5,NaN, NaN,20.0,336.8,NaN,1183853177,NaN,2,1.5,000377,   NaN,336.9,     NaN,      NaN,1.11,NaN,NaN,17.615, NaN,NaN,65.7, NaN, NaN,NaN
20070708,000648,864389,31.912241,-124.173357,2.3,17.228,33.363,43.591,1258.56,0.0,0.331,17.417, NaN, NaN,24.101,   NaN,16.94,1017.66,83.28,16.69,24.8,23.6,10.6,9.3,11.6,14.6,9.7,7.1,NaN, NaN,20.0,336.3,NaN,1183853207,NaN,2,1.4,000407,   NaN,336.2,     NaN,      NaN,1.17,NaN,NaN,17.620, NaN,NaN,65.3, NaN, NaN,NaN
20070708,000719,864420,31.912333,-124.173482,2.3,17.220,33.365,43.581,1267.08,0.0,0.334,17.417, NaN, NaN,24.104,   NaN,16.94,1017.66,83.30,16.69,32.2,30.6,11.1,9.3,6.9,8.6,10.9,8.4,NaN, NaN,20.0,335.0,NaN,1183853238,NaN,2,1.4,000438,   NaN,335.0,     NaN,      NaN,1.21,NaN,NaN,17.612, NaN,NaN,55.7, NaN, NaN,NaN
20070708,000748,864449,31.912430,-124.173585,2.3,17.215,33.366,43.579,1278.59,0.0,0.337,17.417, NaN, NaN,24.105,   NaN,16.91,1017.61,83.24,16.65,31.2,29.8,11.7,9.5,8.2,7.6,11.2,9.2,NaN, NaN,21.0,335.1,NaN,1183853267,NaN,2,1.6,000467,   NaN,335.1,     NaN,      NaN,1.07,NaN,NaN,17.607, NaN,NaN,52.9, NaN, NaN,NaN
20070708,000818,864480,31.912523,-124.173693,2.3,17.215,33.366,43.580,1336.83,0.0,0.349,17.417, NaN, NaN,24.105,   NaN,16.89,1017.59,83.20,16.63,30.2,29.7,11.8,9.2,2.8,3.1,10.1,8.7,NaN, NaN,21.0,334.7,NaN,1183853297,NaN,2,1.6,000497,   NaN,334.7,     NaN,      NaN,1.08,NaN,NaN,17.607, NaN,NaN,54.8, NaN, NaN,NaN
20070708,000848,864509,31.912608,-124.173843,2.3,17.217,33.365,43.581,1314.54,0.0,0.344,17.417, NaN, NaN,24.104,   NaN,16.91,1017.59,83.41,16.62,26.4,27.5,11.8,9.2,359.9,0.1,11.7,10.4,NaN, NaN,21.0,335.4,NaN,1183853327,NaN,2,1.6,000527,   NaN,335.4,     NaN,      NaN,1.14,NaN,NaN,17.609, NaN,NaN,53.2, NaN, NaN,NaN
20070708,000918,864539,31.912690,-124.173937,2.3,17.218,33.366,43.583,1339.53,0.0,0.348,17.417, NaN, NaN,24.104,   NaN,16.93,1017.58,83.46,16.62,25.0,24.7,11.6,9.7,10.3,7.7,10.9,8.5,NaN, NaN,21.0,336.0,NaN,1183853357,NaN,2,1.6,000557,   NaN,336.0,     NaN,      NaN,1.33,NaN,NaN,17.610, NaN,NaN,45.9, NaN, NaN,NaN
20070708,000949,864571,31.912783,-124.174080,2.3,17.218,33.366,43.583,1448.43,0.0,0.372,17.417, NaN, NaN,24.105,   NaN,16.93,1017.52,83.51,16.65,31.7,29.4,10.9,8.9,3.3,6.3,10.0,7.2,NaN, NaN,21.0,334.2,NaN,1183853387,NaN,2,1.6,000588,   NaN,334.2,     NaN,      NaN,1.10,NaN,NaN,17.610, NaN,NaN,45.5, NaN, NaN,NaN
20070708,001018,864599,31.912903,-124.174182,2.3,17.217,33.367,43.582,1601.74,0.0,0.404,17.417, NaN, NaN,24.105,   NaN,16.96,1017.49,83.67,16.68,33.3,30.5,10.8,8.6,12.4,9.2,10.2,7.0,NaN, NaN,21.0,334.8,NaN,1183853417,NaN,2,1.5,000617,   NaN,334.9,     NaN,      NaN,1.32,NaN,NaN,17.609, NaN,NaN,43.9, NaN, NaN,NaN
20070708,001049,864630,31.913033,-124.174297,2.3,17.217,33.366,43.582,1598.23,0.0,0.403,17.417, NaN, NaN,24.104,   NaN,16.99,1017.52,83.77,16.67,31.1,28.8,11.2,9.1,0.5,6.0,10.7,10.3,NaN, NaN,21.0,335.8,NaN,1183853447,NaN,2,1.6,000648,   NaN,335.8,     NaN,      NaN,1.48,NaN,NaN,17.609, NaN,NaN,30.2, NaN, NaN,NaN
20070708,001118,864660,31.913150,-124.174435,2.3,17.218,33.366,43.583,1335.85,0.0,0.348,17.417, NaN, NaN,24.105,   NaN,17.00,1017.60,83.86,16.69,28.0,27.3,10.9,9.7,1.2,359.4,10.4,9.0,NaN, NaN,21.0,335.3,NaN,1183853477,NaN,2,1.6,000677,   NaN,335.3,     NaN,      NaN,1.43,NaN,NaN,17.610, NaN,NaN,29.8, NaN, NaN,NaN
20070708,001148,864689,31.913295,-124.174503,2.3,17.217,33.366,43.581,1270.62,0.0,0.334,17.417, NaN, NaN,24.105,   NaN,17.05,1017.56,84.20,16.72,26.9,25.5,10.6,9.1,6.3,5.1,10.2,6.9,NaN, NaN,21.0,336.1,NaN,1183853507,NaN,2,1.6,000707,   NaN,336.1,     NaN,      NaN,1.28,NaN,NaN,17.609, NaN,NaN,31.7, NaN, NaN,NaN
20070708,001218,864719,31.913411,-124.174657,2.3,17.217,33.366,43.581,1329.21,0.0,0.348,17.417, NaN, NaN,24.103,   NaN,17.06,1017.55,84.30,16.77,27.5,25.9,10.9,8.7,7.9,7.1,11.4,10.1,NaN, NaN,21.0,335.8,NaN,1183853537,NaN,2,1.6,000737,   NaN,335.7,     NaN,      NaN,1.39,NaN,NaN,17.609, NaN,NaN,26.5, NaN, NaN,NaN
20070708,001248,864749,31.913526,-124.174765,2.3,17.219,33.366,43.583,1391.16,0.0,0.360,17.417, NaN, NaN,24.104,   NaN,16.97,1017.49,84.20,16.74,28.9,27.9,11.5,9.5,7.6,6.3,10.3,7.8,NaN, NaN,21.0,333.1,NaN,1183853567,NaN,2,1.7,000767,   NaN,333.1,     NaN,      NaN,1.23,NaN,NaN,17.611, NaN,NaN,16.8, NaN, NaN,NaN
20070708,001318,864779,31.913626,-124.174880,2.3,17.219,33.366,43.583,1255.61,0.0,0.331,17.417, NaN, NaN,24.104,   NaN,16.93,1017.45,84.16,16.67,30.0,28.1,11.7,10.0,4.3,2.6,11.3,9.5,NaN, NaN,21.0,333.1,NaN,1183853597,NaN,2,1.7,000797,   NaN,333.2,     NaN,      NaN,1.10,NaN,NaN,17.611, NaN,NaN,15.6, NaN, NaN,NaN
20070708,001349,864810,31.913730,-124.175005,2.3,17.217,33.366,43.581,1263.35,0.0,0.334,17.417, NaN, NaN,24.104,   NaN,16.94,1017.47,84.21,16.67,29.4,27.5,11.7,10.2,12.2,8.4,10.2,8.3,NaN, NaN,21.0,335.6,NaN,1183853627,NaN,2,1.6,000828,   NaN,335.6,     NaN,      NaN,1.28,NaN,NaN,17.609, NaN,NaN,15.2, NaN, NaN,NaN
20070708,001418,864840,31.913818,-124.175120,2.3,17.218,33.366,43.582,1220.13,0.0,0.324,17.417, NaN, NaN,24.104,   NaN,16.97,1017.49,84.36,16.68,29.6,28.1,11.7,9.8,7.4,7.8,11.4,9.2,NaN, NaN,22.0,335.6,NaN,1183853657,NaN,2,1.4,000857,   NaN,335.6,     NaN,      NaN,1.20,NaN,NaN,17.610, NaN,NaN,10.8, NaN, NaN,NaN
20070708,001448,864869,31.913903,-124.175230,2.3,17.218,33.366,43.582,1223.08,0.0,0.323,17.417, NaN, NaN,24.105,   NaN,16.95,1017.49,84.30,16.65,31.4,31.3,11.8,9.0,10.9,9.0,11.8,7.3,NaN, NaN,21.0,332.7,NaN,1183853687,NaN,2,1.5,000887,   NaN,332.6,     NaN,      NaN,1.40,NaN,NaN,17.610, NaN,NaN,10.9, NaN, NaN,NaN
20070708,001519,864901,31.914010,-124.175368,2.3,17.214,33.366,43.579,1218.67,0.0,0.322,17.417, NaN, NaN,24.106,   NaN,16.92,1017.47,84.17,16.63,33.1,31.3,11.2,8.6,2.2,3.8,9.0,7.4,NaN, NaN,21.0,333.8,NaN,1183853717,NaN,2,1.7,000918,   NaN,333.9,     NaN,      NaN,1.20,NaN,NaN,17.606, NaN,NaN,9.8, NaN, NaN,NaN
20070708,001548,864929,31.914101,-124.175498,2.3,17.212,33.366,43.577,1181.49,0.0,0.316,17.417, NaN, NaN,24.105,   NaN,16.95,1017.49,84.18,16.62,31.9,29.3,11.5,9.7,5.3,4.5,10.7,9.6,NaN, NaN,21.0,335.2,NaN,1183853747,NaN,2,1.7,000947,   NaN,335.2,     NaN,      NaN,1.37,NaN,NaN,17.604, NaN,NaN,1.1, NaN, NaN,NaN
20070708,001619,864960,31.914198,-124.175597,2.3,17.214,33.366,43.579,1221.07,0.0,0.324,17.417, NaN, NaN,24.104,   NaN,16.95,1017.55,84.18,16.60,30.1,27.6,12.0,10.2,3.2,5.5,9.7,9.1,NaN, NaN,20.0,336.2,NaN,1183853777,NaN,2,1.6,000978,   NaN,336.2,     NaN,      NaN,1.04,NaN,NaN,17.606, NaN,NaN,0.3, NaN, NaN,NaN
20070708,001648,864990,31.914280,-124.175707,2.3,17.219,33.366,43.583,1451.17,0.0,0.371,17.417, NaN, NaN,24.104,   NaN,16.94,1017.52,84.16,16.61,29.0,26.5,12.0,10.3,7.7,2.7,12.6,11.1,NaN, NaN,20.0,336.1,NaN,1183853807,NaN,2,1.4,001007,   NaN,336.1,     NaN,      NaN,0.92,NaN,NaN,17.611, NaN,NaN,1.2, NaN, NaN,NaN
20070708,001719,865020,31.914348,-124.175813,2.3,17.218,33.366,43.583,1693.52,0.0,0.420,17.417, NaN, NaN,24.105,   NaN,16.97,1017.57,84.12,16.66,27.0,25.7,11.9,10.5,2.3,356.0,10.5,9.5,NaN, NaN,21.0,336.8,NaN,1183853837,NaN,2,1.3,001038,   NaN,336.8,     NaN,      NaN,1.16,NaN,NaN,17.610, NaN,NaN,1.4, NaN, NaN,NaN
20070708,001748,865049,31.914376,-124.175897,2.3,17.216,33.366,43.581,1979.10,0.0,0.482,17.417, NaN, NaN,24.105,   NaN,17.02,1017.65,84.26,16.67,24.2,21.5,11.1,9.8,357.1,358.1,7.9,8.0,NaN, NaN,23.0,337.5,NaN,1183853867,NaN,2,1.4,001067,   NaN,337.5,     NaN,      NaN,0.93,NaN,NaN,17.608, NaN,NaN,0.2, NaN, NaN,NaN
20070708,001819,865081,31.914416,-124.175960,2.3,17.215,33.367,43.580,2349.31,0.0,0.561,17.417, NaN, NaN,24.105,   NaN,17.13,1017.58,84.61,16.77,20.7,18.9,9.7,8.6,2.4,358.4,10.9,9.4,NaN, NaN,23.0,337.9,NaN,1183853897,NaN,2,1.4,001098,   NaN,337.9,     NaN,      NaN,0.60,NaN,NaN,17.607, NaN,NaN,1.0, NaN, NaN,NaN
20070708,001848,865109,31.914558,-124.176020,2.3,17.217,33.367,43.582,1463.19,0.0,0.376,17.417, NaN, NaN,24.104,   NaN,17.13,1017.52,84.57,16.78,17.1,15.3,10.3,9.4,0.8,352.2,10.4,10.1,NaN, NaN,22.0,339.3,NaN,1183853927,NaN,2,1.5,001127,   NaN,339.3,     NaN,      NaN,1.37,NaN,NaN,17.609, NaN,NaN,-0.1, NaN, NaN,NaN
20070708,001918,865139,31.914750,-124.176115,2.3,17.220,33.367,43.585,1372.23,0.0,0.356,17.417, NaN, NaN,24.104,   NaN,17.06,1017.50,84.37,16.76,10.1,7.3,11.3,11.0,346.0,347.1,10.6,11.0,NaN, NaN,22.0,343.8,NaN,1183853957,NaN,2,1.8,001157,   NaN,343.9,     NaN,      NaN,1.61,NaN,NaN,17.612, NaN,NaN,-0.1, NaN, NaN,NaN
20070708,001948,865170,31.915030,-124.176177,2.3,17.220,33.367,43.585,1290.67,0.0,0.340,17.416, NaN, NaN,24.105,   NaN,16.94,1017.57,84.04,16.70,3.5,1.1,12.5,12.1,350.5,344.0,11.5,12.0,NaN, NaN,21.0,347.2,NaN,1183853987,NaN,2,2.0,001187,   NaN,347.2,     NaN,      NaN,2.26,NaN,NaN,17.612, NaN,NaN,-0.1, NaN, NaN,NaN
20070708,002018,865199,31.915351,-124.176218,2.3,17.218,33.366,43.584,1285.07,0.0,0.338,17.417, NaN, NaN,24.105,   NaN,16.92,1017.58,83.98,16.68,1.5,357.9,13.5,13.1,352.7,347.2,12.4,12.5,NaN, NaN,23.0,347.2,NaN,1183854017,NaN,2,2.4,001217,   NaN,347.2,     NaN,      NaN,2.65,NaN,NaN,17.610, NaN,NaN,-0.2, NaN, NaN,NaN
20070708,002048,865229,31.915718,-124.176290,2.3,17.216,33.366,43.582,1347.63,0.0,0.351,17.417, NaN, NaN,24.105,   NaN,16.91,1017.52,83.75,16.62,3.3,0.1,13.7,13.4,346.3,347.4,12.0,12.5,NaN, NaN,23.0,346.3,NaN,1183854047,NaN,2,2.6,001247,   NaN,346.3,     NaN,      NaN,2.72,NaN,NaN,17.608, NaN,NaN,-0.2, NaN, NaN,NaN
20070708,002118,865259,31.916080,-124.176372,2.3,17.216,33.367,43.581,1225.68,0.0,0.326,17.417, NaN, NaN,24.106,   NaN,16.92,1017.54,83.64,16.61,5.7,2.3,13.8,13.6,353.5,349.1,13.1,12.4,NaN, NaN,22.0,345.8,NaN,1183854077,NaN,2,2.8,001277,   NaN,345.7,     NaN,      NaN,3.07,NaN,NaN,17.608, NaN,NaN,NaN, NaN, NaN,NaN
20070708,002149,865290,31.916408,-124.176420,2.3,17.214,33.367,43.580,1182.90,0.0,0.317,17.410, NaN, NaN,24.105,   NaN,16.93,1017.56,83.31,16.60,5.1,2.4,13.9,13.6,352.5,345.8,11.9,11.2,NaN, NaN,22.0,345.8,NaN,1183854107,NaN,2,2.7,001308,   NaN,345.8,     NaN,      NaN,2.50,NaN,NaN,17.606, NaN,NaN,NaN, NaN, NaN,NaN
20070708,002218,865320,31.916618,-124.176450,2.3,17.215,33.366,43.580,1227.07,0.0,0.325,17.409, NaN, NaN,24.105,   NaN,16.92,1017.53,83.24,16.61,6.0,3.3,13.0,12.6,357.2,351.8,11.7,11.3,NaN, NaN,23.0,346.3,NaN,1183854137,NaN,2,2.2,001337,   NaN,346.2,     NaN,      NaN,1.57,NaN,NaN,17.607, NaN,NaN,NaN, NaN, NaN,NaN
20070708,002248,865350,31.916775,-124.176488,2.3,17.215,33.366,43.580,1328.74,0.0,0.346,17.416, NaN, NaN,24.106,   NaN,16.95,1017.49,83.19,16.62,8.9,5.5,12.7,12.2,358.1,352.8,12.2,11.7,NaN, NaN,23.0,345.3,NaN,1183854167,NaN,2,1.7,001367,   NaN,345.2,     NaN,      NaN,1.23,NaN,NaN,17.607, NaN,NaN,NaN, NaN, NaN,NaN
20070708,002318,865379,31.916895,-124.176547,2.3,17.213,33.366,43.577,1332.65,0.0,0.344,17.410, NaN, NaN,24.106,   NaN,16.98,1017.43,83.25,16.65,12.5,9.0,12.6,12.3,3.1,1.1,12.0,10.7,NaN, NaN,23.0,342.9,NaN,1183854197,NaN,2,1.6,001397,   NaN,342.7,     NaN,      NaN,1.24,NaN,NaN,17.605, NaN,NaN,NaN, NaN, NaN,NaN
20070708,002348,865409,31.916960,-124.176567,2.3,17.212,33.366,43.577,1387.29,0.0,0.357,17.416, NaN, NaN,24.106,   NaN,17.02,1017.47,83.39,16.70,13.4,10.5,12.3,11.7,341.2,344.4,10.4,10.1,NaN, NaN,23.0,342.2,NaN,1183854227,NaN,2,1.5,001427,   NaN,342.3,     NaN,      NaN,0.57,NaN,NaN,17.604, NaN,NaN,NaN, NaN, NaN,NaN
20070708,002419,865440,31.917026,-124.176585,2.3,17.210,33.366,43.575,1527.96,0.0,0.386,17.417, NaN, NaN,24.106,   NaN,17.05,1017.49,83.56,16.72,4.0,3.9,11.6,10.9,348.7,343.3,10.4,10.2,NaN, NaN,22.0,348.5,NaN,1183854257,NaN,2,1.4,001458,   NaN,348.7,     NaN,      NaN,0.57,NaN,NaN,17.602, NaN,NaN,NaN, NaN, NaN,NaN
20070708,002448,865469,31.917021,-124.176590,2.3,17.210,33.366,43.575,1704.32,0.0,0.423,17.408, NaN, NaN,24.106,   NaN,16.95,1017.48,83.32,16.70,4.6,1.6,11.3,10.9,3.5,3.5,9.0,9.8,NaN, NaN,21.0,348.6,NaN,1183854287,NaN,2,1.2,001487,   NaN,348.5,     NaN,      NaN,0.23,NaN,NaN,17.602, NaN,NaN,NaN, NaN, NaN,595.000000
20070708,002518,865500,31.917065,-124.176620,2.3,17.211,33.366,43.576,1995.83,0.0,0.486,17.411, NaN, NaN,24.106,   NaN,16.94,1017.49,83.32,16.70,15.6,14.4,10.7,10.4,357.4,354.3,10.8,10.1,NaN, NaN,22.0,336.6,NaN,1183854317,NaN,2,1.0,001517,   NaN,336.3,     NaN,      NaN,0.75,NaN,NaN,17.603, NaN,NaN,NaN, NaN, NaN,NaN
20070708,002548,865529,31.917130,-124.176710,2.3,17.211,33.366,43.576,1758.40,0.0,0.432,17.417, NaN, NaN,24.106,   NaN,17.05,1017.42,83.58,16.75,18.4,16.6,11.0,10.3,353.2,349.1,13.0,11.7,NaN, NaN,23.0,333.5,NaN,1183854347,NaN,2,1.0,001547,   NaN,333.5,     NaN,      NaN,1.15,NaN,NaN,17.603, NaN,NaN,NaN, NaN, NaN,NaN
20070708,002619,865560,31.917241,-124.176735,2.3,17.211,33.366,43.576,1377.74,0.0,0.357,17.417, NaN, NaN,24.106,   NaN,16.99,1017.45,83.39,16.72,14.1,13.5,12.1,11.5,345.6,341.4,12.8,12.5,NaN, NaN,24.0,337.0,NaN,1183854377,NaN,2,1.4,001578,   NaN,337.2,     NaN,      NaN,0.88,NaN,NaN,17.603, NaN,NaN,NaN, NaN, NaN,NaN
20070708,002648,865589,31.917268,-124.176768,2.3,17.212,33.366,43.577,1415.13,0.0,0.365,17.415, NaN, NaN,24.105,   NaN,16.93,1017.43,83.13,16.69,10.3,7.2,12.2,12.1,353.2,351.1,10.3,10.5,NaN, NaN,24.0,339.2,NaN,1183854407,NaN,2,1.5,001607,   NaN,339.2,     NaN,      NaN,0.12,NaN,NaN,17.604, NaN,NaN,NaN, NaN, NaN,NaN
20070708,002719,865620,31.917203,-124.176772,2.3,17.214,33.366,43.578,1876.95,0.0,0.462,17.407, NaN, NaN,24.104,   NaN,16.91,1017.40,83.04,16.70,17.9,13.9,11.3,11.0,3.9,357.7,8.4,7.5,NaN, NaN,24.0,331.9,NaN,1183854437,NaN,2,1.3,001638,   NaN,331.5,     NaN,      NaN,0.53,NaN,NaN,17.606, NaN,NaN,NaN, NaN, NaN,NaN
20070708,002748,865649,31.917141,-124.176830,2.3,17.216,33.366,43.580,1599.26,0.0,0.403,17.407, NaN, NaN,24.105,   NaN,16.96,1017.42,83.17,16.71,28.2,25.1,11.3,10.0,357.0,355.2,10.2,8.5,NaN, NaN,24.0,323.6,NaN,1183854467,NaN,2,1.0,001667,   NaN,323.4,     NaN,      NaN,0.54,NaN,NaN,17.608, NaN,NaN,NaN, NaN, NaN,NaN
20070708,002818,865680,31.917166,-124.176962,2.3,17.216,33.366,43.580,1459.87,0.0,0.371,17.411, NaN, NaN,24.105,   NaN,17.04,1017.37,83.28,16.70,29.8,26.7,11.0,9.9,344.0,339.9,12.1,11.5,NaN, NaN,26.0,322.0,NaN,1183854497,NaN,2,1.1,001697,   NaN,322.1,     NaN,      NaN,1.34,NaN,NaN,17.608, NaN,NaN,NaN, NaN, NaN,596.000000
20070708,002848,865709,31.917218,-124.177065,2.3,17.216,33.366,43.580,1589.39,0.0,0.400,17.417, NaN, NaN,24.105,   NaN,17.01,1017.36,83.22,16.70,19.2,17.9,11.4,10.8,331.4,334.7,10.9,10.5,NaN, NaN,25.0,332.2,NaN,1183854527,NaN,2,1.4,001727,   NaN,332.8,     NaN,      NaN,0.84,NaN,NaN,17.608, NaN,NaN,NaN, NaN, NaN,NaN
20070708,002918,865739,31.917370,-124.177090,2.3,17.215,33.366,43.580,1640.83,0.0,0.411,17.417, NaN, NaN,24.106,   NaN,16.97,1017.46,83.20,16.71,6.6,3.0,12.0,11.3,343.6,337.3,12.0,11.7,NaN, NaN,23.0,343.6,NaN,1183854557,NaN,2,1.3,001757,   NaN,343.7,     NaN,      NaN,1.34,NaN,NaN,17.607, NaN,NaN,NaN, NaN, NaN,NaN
20070708,002949,865770,31.917545,-124.177108,2.3,17.212,33.366,43.577,1437.34,0.0,0.370,17.416, NaN, NaN,24.105,   NaN,16.97,1017.49,83.22,16.71,1.0,356.3,12.3,12.1,354.5,349.1,12.3,10.9,NaN, NaN,20.0,348.1,NaN,1183854587,NaN,2,1.6,001788,   NaN,348.1,     NaN,      NaN,1.36,NaN,NaN,17.604, NaN,NaN,NaN, NaN, NaN,NaN
20070708,003018,865799,31.917685,-124.177167,2.3,17.213,33.366,43.578,1482.23,0.0,0.380,17.407, NaN, NaN,24.105,   NaN,16.95,1017.45,83.22,16.70,4.6,359.8,12.9,12.8,0.1,0.1,12.0,12.2,NaN, NaN,20.0,345.0,NaN,1183854617,NaN,2,1.7,001817,   NaN,344.8,     NaN,      NaN,1.18,NaN,NaN,17.605, NaN,NaN,NaN, NaN, NaN,597.000000
20070708,003048,865830,31.917813,-124.177247,2.3,17.215,33.366,43.580,1482.74,0.0,0.380,17.409, NaN, NaN,24.105,   NaN,16.95,1017.41,83.24,16.69,14.4,12.9,12.9,12.8,357.2,355.0,11.5,12.0,NaN, NaN,19.0,335.9,NaN,1183854647,NaN,2,1.6,001847,   NaN,335.7,     NaN,      NaN,1.16,NaN,NaN,17.607, NaN,NaN,NaN, NaN, NaN,NaN
20070708,003119,865860,31.917880,-124.177342,2.3,17.214,33.366,43.579,1438.53,0.0,0.370,17.417, NaN, NaN,24.106,   NaN,16.96,1017.36,83.27,16.69,17.7,15.4,13.4,12.9,354.3,349.1,13.1,11.7,NaN, NaN,19.0,334.1,NaN,1183854677,NaN,2,1.6,001878,   NaN,334.1,     NaN,      NaN,0.90,NaN,NaN,17.606, NaN,NaN,NaN, NaN, NaN,NaN
20070708,003148,865889,31.917906,-124.177418,2.3,17.213,33.367,43.578,1480.22,0.0,0.377,17.416, NaN, NaN,24.106,   NaN,16.95,1017.26,83.12,16.70,18.7,16.9,13.6,12.9,353.7,352.7,10.7,10.1,NaN, NaN,19.0,334.4,NaN,1183854707,NaN,2,1.5,001907,   NaN,334.4,     NaN,      NaN,0.79,NaN,NaN,17.605, NaN,NaN,NaN, NaN, NaN,NaN
20070708,003218,865919,31.917950,-124.177505,2.3,17.210,33.366,43.576,1257.09,0.0,0.331,17.407, NaN, NaN,24.106,   NaN,16.93,1017.22,83.08,16.69,19.1,15.5,12.9,12.0,344.9,341.7,12.2,12.3,NaN, NaN,19.0,335.3,NaN,1183854737,NaN,2,1.4,001937,   NaN,335.4,     NaN,      NaN,0.84,NaN,NaN,17.602, NaN,NaN,NaN, NaN, NaN,NaN
20070708,003248,865949,31.918033,-124.177558,2.3,17.210,33.367,43.575,1186.65,0.0,0.316,17.410, NaN, NaN,24.106,   NaN,16.92,1017.22,83.04,16.66,15.0,11.4,12.7,12.4,5.3,358.0,12.6,12.2,NaN, NaN,20.0,341.2,NaN,1183854767,NaN,2,1.2,001967,   NaN,341.3,     NaN,      NaN,1.00,NaN,NaN,17.602, NaN,NaN,NaN, NaN, NaN,NaN
20070708,003318,865979,31.918148,-124.177603,2.3,17.212,33.366,43.577,1157.87,0.0,0.311,17.414, NaN, NaN,24.105,   NaN,16.90,1017.23,83.01,16.67,14.9,11.3,12.7,12.6,358.4,356.3,11.4,12.0,NaN, NaN,19.0,344.7,NaN,1183854797,NaN,2,1.2,001997,   NaN,344.7,     NaN,      NaN,0.97,NaN,NaN,17.604, NaN,NaN,NaN, NaN, NaN,NaN
20070708,003348,866010,31.918241,-124.177697,2.3,17.214,33.366,43.578,1120.17,0.0,0.302,17.407, NaN, NaN,24.105,   NaN,16.91,1017.25,83.07,16.67,16.8,14.4,12.5,12.4,2.3,0.3,11.7,10.8,NaN, NaN,19.0,342.1,NaN,1183854827,NaN,2,1.6,002027,   NaN,342.0,     NaN,      NaN,0.85,NaN,NaN,17.606, NaN,NaN,NaN, NaN, NaN,NaN
20070708,003418,866039,31.918345,-124.177748,2.3,17.214,33.366,43.578,1101.64,0.0,0.297,17.407, NaN, NaN,24.106,   NaN,16.91,1017.30,83.09,16.66,20.4,16.2,12.3,11.7,2.4,359.2,11.3,10.9,NaN, NaN,19.0,339.8,NaN,1183854857,NaN,2,1.7,002057,   NaN,339.8,     NaN,      NaN,1.06,NaN,NaN,17.606, NaN,NaN,NaN, NaN, NaN,NaN
20070708,003448,866069,31.918443,-124.177828,2.3,17.212,33.366,43.577,1071.28,0.0,0.289,17.408, NaN, NaN,24.106,   NaN,16.92,1017.37,83.18,16.67,21.9,19.0,12.2,11.5,1.3,2.6,11.2,10.0,NaN, NaN,19.0,340.1,NaN,1183854887,NaN,2,1.4,002087,   NaN,340.1,     NaN,      NaN,1.04,NaN,NaN,17.604, NaN,NaN,NaN, NaN, NaN,NaN
20070708,003519,866101,31.918540,-124.177927,2.3,17.212,33.366,43.576,1048.96,0.0,0.285,17.408, NaN, NaN,24.106,   NaN,16.91,1017.33,83.18,16.66,22.7,20.5,12.0,11.2,359.1,0.2,10.5,10.4,NaN, NaN,19.0,340.1,NaN,1183854917,NaN,2,1.2,002118,   NaN,340.1,     NaN,      NaN,1.11,NaN,NaN,17.604, NaN,NaN,NaN, NaN, NaN,NaN
20070708,003548,866129,31.918611,-124.177988,2.3,17.211,33.366,43.575,1137.31,0.0,0.303,17.407, NaN, NaN,24.107,   NaN,16.93,1017.33,83.30,16.64,20.5,19.1,11.7,10.9,1.6,2.9,11.8,9.5,NaN, NaN,19.0,340.4,NaN,1183854947,NaN,2,1.3,002147,   NaN,340.5,     NaN,      NaN,0.74,NaN,NaN,17.603, NaN,NaN,NaN, NaN, NaN,NaN
20070708,003619,866160,31.918660,-124.178065,2.2,17.209,33.366,43.574,1108.75,0.0,0.293,17.407, NaN, NaN,24.107,   NaN,16.96,1017.40,83.45,16.68,19.6,19.8,11.4,10.1,13.8,10.0,12.4,9.7,NaN, NaN,19.0,340.4,NaN,1183854977,NaN,2,1.1,002178,   NaN,340.4,     NaN,      NaN,0.81,NaN,NaN,17.601, NaN,NaN,NaN, NaN, NaN,NaN
20070708,003648,866190,31.918713,-124.178167,2.3,17.208,33.363,43.572,1013.33,0.0,0.273,17.407, NaN, NaN,24.103,   NaN,16.95,1017.30,83.46,16.68,27.5,26.1,11.8,10.3,8.9,8.0,10.9,10.4,NaN, NaN,19.0,337.5,NaN,1183855007,NaN,2,1.1,002207,   NaN,337.4,     NaN,      NaN,1.03,NaN,NaN,17.600, NaN,NaN,NaN, NaN, NaN,NaN
20070708,003718,866219,31.918790,-124.178277,2.3,17.208,33.365,43.571,963.77,0.0,0.264,17.407, NaN, NaN,24.106,   NaN,16.93,1017.17,83.43,16.65,29.6,28.0,12.2,10.7,9.2,4.3,13.2,10.9,NaN, NaN,19.0,336.8,NaN,1183855037,NaN,2,1.2,002237,   NaN,336.9,     NaN,      NaN,1.06,NaN,NaN,17.600, NaN,NaN,NaN, NaN, NaN,NaN